Regional Weather Roundup
Issued by NWS Albany, NY

Home | Current Version | Previous Version | Text Only | Print | Product List | Glossary On
Versions: 1 2 3 4 5 6 7 8 9 10 11 12 13 14 15 16 17 18 19 20 21 22 23 24 25 26 27 28 29 30 31 32 33 34 35 36 37 38 39 40 41 42 43 44 45 46 47 48 49 50
897
ASUS41 KALY 102210
RWRALY

NEW YORK STATE HOURLY WEATHER ROUNDUP
NATIONAL WEATHER SERVICE ALBANY NY
500 PM EST WED FEB 10 2016

NOTE: "FAIR" INDICATES FEW OR NO CLOUDS BELOW 12,000 FEET WITH NO
SIGNIFICANT WEATHER AND/OR NO OBSTRUCTIONS TO VISIBILITY.

NYZ032-033-038>043-046>054-057>066-NYZ062>081-102300-
EAST


CITY           SKY/WX    TMP DP  RH WIND       PRES   REMARKS
ALBANY         CLOUDY    35  22  58 W14       29.60R WCI  26
GLENS FALLS    CLOUDY    34  21  59 VRB7      29.57R WCI  28
POUGHKEEPSIE   MOCLDY    37  18  46 W7        29.62R WCI  32
NEWBURGH       MOCLDY    36  19  51 W14G23    29.63R WCI  27
MONTGOMERY     CLOUDY    36  19  50 NW7G20    29.62R WCI  30
WHITE PLAINS   MOCLDY    36  18  48 W8        29.62R WCI  30
ISLIP          MOCLDY    37  20  50 W12       29.63R WCI  29
NEW YORK CITY  MOCLDY    38  18  44 W17       29.66R WCI  28
CENTRAL PARK   CLOUDY    37  18  46 MISG      29.68R
$$

NYZ005>009-017-018-044>046-055-056-102300-
CENTRAL


CITY           SKY/WX    TMP DP  RH WIND       PRES   REMARKS
FULTON         HVY SNOW  28  25  88 W14       29.66R VSB 1/4 WCI  17
SYRACUSE       LGT SNOW  27  22  81 W22       29.65R WCI  13
ROME           LGT SNOW  27  24  89 W10       29.65R FOG     WCI  17
ELMIRA         CLOUDY    28  20  71 W10       29.66R HAZE    WCI  19
BINGHAMTON     LGT SNOW  25  19  78 W10       29.60R WCI  15
MONTICELLO     MOCLDY    28  19  69 W7        29.60R WCI  21
$$

NYZ026>034-041>043-102300-
NORTH


CITY           SKY/WX    TMP DP  RH WIND       PRES   REMARKS
WATERTOWN      CLOUDY    25  19  78 W5        29.64R WCI  19
FORT DRUM      NOT AVBL
MASSENA        CLOUDY    22  16  78 W6        29.63R WCI  14
SARANAC LAKE   LGT SNOW  21  17  84 W9        29.49R VSB 3/4 WCI  11
PLATTSBURGH    LGT SNOW  24  21  88 N8        29.57R FOG     WCI  15
$$

NYZ001>004-010>016-019>021-102300-
WEST


CITY           SKY/WX    TMP DP  RH WIND       PRES   REMARKS
NIAGARA FALLS  LGT SNOW  23  15  71 W21       29.72R WCI   8
BUFFALO        CLOUDY    22  14  71 W20       29.71R WCI   7
DUNKIRK        LGT SNOW  20  13  74 W18G28    29.78R WCI   5
JAMESTOWN      CLOUDY    16   7  67 W15G22    29.70R WCI   1
WELLSVILLE     HVY SNOW  20  15  81 W16G25    29.63R VSB 1/4 WCI   6
ROCHESTER      FLURRIES  27  18  69 W12G21    29.68R WCI  17
PENN YAN       CLOUDY    27  15  61 W12       29.66R WCI  17
$$

             KEY
       WCI = WIND CHILL INDEX
       VSB = VISIBILITY
       HX  = HEAT INDEX
$$




USA.gov is the U.S. government's official web portal to all federal, state and local government web resources and services.